Погода в Чёрной

Россия / Ненецкий автономный округ     68°35′15″N   56°34′53″E
темп.,
°C
ветер,
м/с
пор.,
м/с
влажн.,
%
обл.,
%
осадки,
мм/ч
давл.,
гПа
погр.,
м
7 марта, вс
вс700:00−20в229998 0.1 100435
03:00−22всв2210094 0.1 100624
06:00−21св579899 0.1 1007267
09:00−24св579799 0.3 1008325
12:00−27св5798100 0.1 1010289
15:00−29св5899100 0.1 1011264
18:00−32св46100100 0.0 101298
21:00−33св4610099 0.0 101282
8 марта, пн
пн800:00−34св3410095 0.0 101339
03:00−34св3310096 0.0 101322
06:00−34ссв34100100 0.0 101324
09:00−32с23100100 0.0 101338
12:00−30ссз34100100 0.0 1013117
15:00−29ссз44100100 0.0 101376
18:00−30ссз34100100 0.0 101243
21:00−29сз33100100 0.1 101238
9 марта, вт
вт900:00−27зсз4710091 0.1 1011136
03:00−24сз489994 0.1 1011214
06:00−24сз4799100 0.1 1010196
09:00−26зсз469999 0.1 1010158
12:00−25з479490 0.0 1010179
15:00−25зюз589590 0.0 1009173
18:00−25зюз5996100 0.1 1007267
21:00−24зюз4697100 0.3 1006193
10 марта, ср
ср1000:00−24зюз3597100 0.2 100592
03:00−27зюз1110098 0.3 100520
06:00−28св0110092 0.0 100519
09:00−27вюв0010081 0.0 100519
12:00−24юз119579 0.0 100622
15:00−22ююз229389 0.0 100635
18:00−22юз2391100 0.0 100541
21:00−22ююз4596100 0.1 1004116
11 марта, чт
чт1100:00−21ююз4796100 0.1 1004198
03:00−20юз4795100 0.1 1003134
06:00−19юз5796100 0.0 1001117
09:00−14ююз6994100 0.3 998239
12:00−7з61294100 1.0 997578
15:00−9з81492100 1.1 995461
18:00−11з91690100 0.1 994466
21:00−13зюз91690100 0.1 993437